W0RBO Weather Reports


time (UTC)temp
C
wind
direction
speed
KPH
gust
KPH
rain 1hr
cm
rain 24hr
cm
rain mn
cm
humidity
%
barometer
mb
20260906201115 31 144 14.5 20.9 0.00 0.03 0.03 51 1013.2
20260906200213 31 130 16.1 25.7 0.00 0.03 0.03 50 1013.2
20260906195403 31 127 17.7 27.4 0.00 0.03 0.03 52 1013.3
20260906194717 31 125 19.3 29.0 0.00 0.03 0.03 53 1013.3
20260906193814 31 125 19.3 29.0 0.00 0.03 0.03 52 1013.4
20260906192703 30 117 20.9 37.0 0.00 0.03 0.03 56 1013.5
20260906191803 30 118 22.5 29.0 0.00 0.03 0.03 58 1013.5
20260906191116 30 120 20.9 29.0 0.00 0.03 0.03 57 1013.7
20260906190003 29 113 22.5 32.2 0.00 0.03 0.03 60 1013.8
20260906185615 28 114 22.5 32.2 0.00 0.03 0.03 62 1013.8
20260906184712 27 116 24.1 32.2 0.00 0.03 0.03 64 1013.9
20260906183603 27 113 19.3 27.4 0.00 0.03 0.03 66 1014.2
20260906182703 26 110 16.1 25.7 0.00 0.03 0.03 69 1014.4
20260906182014 26 107 16.1 29.0 0.00 0.03 0.03 71 1014.6
20260906180903 25 99 12.9 22.5 0.00 0.03 0.03 73 1014.9
20260906180214 25 103 14.5 22.5 0.00 0.03 0.03 73 1015.0
20260906175403 25 99 14.5 24.1 0.00 0.03 0.03 74 1014.8
20260906174713 25 97 12.9 24.1 0.00 0.03 0.03 74 1015.2
20260906173815 25 93 9.7 19.3 0.00 0.03 0.03 75 1015.7
20260906172912 25 95 9.7 22.5 0.00 0.03 0.03 75 1015.9
20260906171803 25 90 11.3 22.5 0.00 0.03 0.03 75 1016.1
20260906171112 24 91 11.3 22.5 0.00 0.03 0.03 75 1016.2
20260906170003 24 81 16.1 27.4 0.00 0.03 0.03 76 1016.0
20260906165403 24 78 12.9 25.7 0.00 0.03 0.03 76 1016.2
20260906164713 24 80 9.7 24.1 0.00 0.03 0.03 77 1016.4
20260906163603 24 135 4.8 12.9 0.03 0.03 0.03 78 1016.6
20260906162913 24 115 4.8 16.1 0.03 0.03 0.03 79 1016.8
20260906161803 24 356 4.8 9.7 0.03 0.03 0.03 82 1017.1
20260906160903 24 329 3.2 6.4 0.03 0.03 0.03 81 1017.5
20260906160215 24 333 3.2 6.4 0.03 0.03 0.03 81 1017.6
20260906155617 24 350 3.2 11.3 0.03 0.03 0.03 81 1017.5
20260906154503 24 357 1.6 6.4 0.00 0.00 0.00 83 1017.3
20260906153816 24 352 3.2 8.0 0.00 0.00 0.00 82 1017.3
20260906152703 24 337 1.6 6.4 0.00 0.00 0.00 80 1017.1
20260906151803 25 343 1.6 3.2 0.00 0.00 0.00 77 1017.0
20260906151113 25 12 1.6 4.8 0.00 0.00 0.00 75 1016.6
20260906150003 25 117 1.6 4.8 0.00 0.00 0.00 75 1016.3
20260906145612 25 103 1.6 6.4 0.00 0.00 0.00 75 1016.3
20260906144715 25 335 3.2 14.5 0.00 0.00 0.00 75 1016.3
20260906143817 25 348 3.2 14.5 0.00 0.00 0.00 76 1016.2
20260906142914 25 349 3.2 12.9 0.00 0.00 0.00 77 1016.2
20260906141803 24 338 4.8 14.5 0.00 0.00 0.00 78 1016.3
20260906140903 24 341 4.8 12.9 0.00 0.00 0.00 78 1016.3
20260906140003 24 351 6.4 16.1 0.00 0.00 0.00 78 1016.2
20260906135403 24 340 8.0 17.7 0.00 0.00 0.00 78 1016.2
20260906134503 23 347 6.4 17.7 0.00 0.00 0.00 78 1016.2
20260906133603 23 340 4.8 14.5 0.00 0.00 0.00 80 1016.3
20260906132915 23 347 6.4 16.1 0.00 0.00 0.00 80 1016.4
20260906131803 23 350 6.4 16.1 0.00 0.00 0.00 80 1016.3
20260906130903 23 341 4.8 19.3 0.00 0.00 0.00 79 1016.2
20260906130217 23 327 4.8 14.5 0.00 0.00 0.00 78 1016.2
20260906125614 24 348 4.8 22.5 0.00 0.00 0.00 77 1016.3
20260906124716 24 346 6.4 22.5 0.00 0.00 0.00 76 1016.0
20260906123603 24 330 4.8 14.5 0.00 0.00 0.00 71 1016.1
20260906122703 24 308 6.4 14.5 0.00 0.00 0.00 72 1015.8
20260906121803 24 303 8.0 14.5 0.00 0.00 0.00 72 1015.5
20260906121115 23 299 9.7 19.3 0.00 0.00 0.00 73 1015.2
20260906120003 23 260 1.6 4.8 0.00 0.00 0.00 76 1014.8
20260906115614 22 249 1.6 4.8 0.00 0.00 0.00 76 1014.6
20260906114503 23 224 1.6 4.8 0.00 0.00 0.00 76 1014.3
20260906113603 23 199 1.6 4.8 0.00 0.00 0.00 76 1014.0
20260906112703 23 215 1.6 4.8 0.00 0.00 0.00 76 1013.9
20260906111803 23 224 3.2 4.8 0.00 0.00 0.00 75 1013.8
20260906110903 23 198 3.2 6.4 0.00 0.00 0.00 74 1013.6
20260906110213 23 183 4.8 8.0 0.00 0.00 0.00 74 1013.4
20260906105615 23 180 4.8 9.7 0.00 0.00 0.00 74 1013.1
20260906104717 23 172 6.4 9.7 0.00 0.00 0.00 74 1012.9
20260906103815 23 164 6.4 9.7 0.00 0.00 0.00 74 1012.7
20260906102703 23 168 6.4 9.7 0.00 0.00 0.00 74 1012.9
20260906101803 23 166 8.0 9.7 0.00 0.00 0.00 75 1012.8
20260906101117 23 167 6.4 9.7 0.00 0.00 0.00 74 1012.9
20260906100003 23 163 8.0 9.7 0.00 0.00 0.00 74 1012.8
20260906095403 23 165 6.4 12.9 0.00 0.00 0.00 73 1012.8
20260906094504 24 168 8.0 12.9 0.00 0.00 0.00 72 1012.8
20260906093603 24 177 8.0 12.9 0.00 0.00 0.00 72 1012.8
20260906092703 24 174 8.0 12.9 0.00 0.00 0.00 72 1012.8
20260906091803 24 175 8.0 14.5 0.00 0.00 0.00 72 1012.7
20260906091112 24 164 8.0 14.5 0.00 0.00 0.00 72 1012.7
20260906090003 24 157 8.0 14.5 0.00 0.00 0.00 73 1012.5
20260906085403 23 163 8.0 9.7 0.00 0.00 0.00 75 1012.6
20260906084503 24 165 8.0 12.9 0.00 0.00 0.00 74 1012.7
20260906083816 24 162 9.7 14.5 0.00 0.00 0.00 73 1012.5
20260906082913 24 164 8.0 12.9 0.00 0.00 0.00 72 1012.6
20260906082016 25 164 9.7 14.5 0.00 0.00 0.00 72 1012.6
20260906080903 25 166 8.0 14.5 0.00 0.00 0.00 71 1012.7
20260906080003 25 168 8.0 11.3 0.00 0.00 0.00 72 1012.9
20260906075403 25 165 8.0 12.9 0.00 0.00 0.00 72 1012.8
20260906074714 25 163 8.0 12.9 0.00 0.00 0.00 72 1012.8
20260906073603 25 160 8.0 12.9 0.00 0.00 0.00 71 1012.8
20260906072703 25 161 8.0 12.9 0.00 0.00 0.00 72 1012.9
20260906071803 24 168 4.8 8.0 0.00 0.00 0.00 75 1012.9
20260906071113 24 175 4.8 8.0 0.00 0.00 0.00 76 1012.9
20260906070216 24 184 4.8 8.0 0.00 0.00 0.00 76 1013.0
20260906065403 23 186 4.8 8.0 0.00 0.00 0.00 77 1012.9
20260906064503 23 177 4.8 8.0 0.00 0.00 0.00 78 1012.8
20260906063603 23 162 1.6 6.4 0.00 0.00 0.00 80 1012.7
20260906062703 23 142 3.2 3.2 0.00 0.00 0.00 80 1012.7
20260906062017 23 132 1.6 3.2 0.00 0.00 0.00 80 1012.7
20260906060903 23 143 1.6 3.2 0.00 0.00 0.00 79 1012.7
20260906060216 23 135 3.2 4.8 0.00 0.00 0.00 79 1012.6
20260906055613 23 131 3.2 4.8 0.00 0.00 0.00 78 1012.5
20260906054503 23 128 4.8 6.4 0.00 0.00 0.00 76 1012.4
20260906053813 23 133 3.2 6.4 0.00 0.00 0.00 77 1012.4
20260906052915 23 126 3.2 6.4 0.00 0.00 0.00 76 1012.3
20260906051803 24 123 4.8 9.7 0.00 0.00 0.00 75 1012.4
20260906050903 24 118 6.4 11.3 0.00 0.00 0.00 74 1012.4
20260906050217 25 114 6.4 11.3 0.00 0.00 0.00 73 1012.5
20260906045614 24 124 3.2 6.4 0.00 0.00 0.00 73 1012.5
20260906044503 24 161 3.2 6.4 0.00 0.00 0.00 74 1012.4
20260906043603 24 159 3.2 6.4 0.00 0.00 0.00 74 1012.4
20260906042916 24 152 1.6 4.8 0.00 0.00 0.00 71 1012.4
20260906041803 25 206 1.6 4.8 0.00 0.00 0.00 69 1012.3
20260906041115 25 207 1.6 4.8 0.00 0.00 0.00 69 1012.4
20260906040213 25 190 3.2 6.4 0.00 0.00 0.00 69 1012.3
20260906035614 25 187 3.2 8.0 0.00 0.00 0.00 68 1012.4
20260906034717 25 196 3.2 6.4 0.00 0.00 0.00 67 1012.4
20260906033603 26 190 3.2 8.0 0.00 0.00 0.00 66 1012.4
20260906032703 26 187 3.2 8.0 0.00 0.00 0.00 66 1012.4
20260906031803 25 162 3.2 6.4 0.00 0.00 0.00 67 1012.2
20260906031116 25 133 3.2 6.4 0.00 0.00 0.00 66 1012.2
20260906030213 26 122 4.8 6.4 0.00 0.00 0.00 65 1012.0
20260906025615 26 124 4.8 6.4 0.00 0.00 0.00 65 1011.9
20260906024503 26 119 4.8 9.7 0.00 0.00 0.00 63 1011.8
20260906023603 26 121 6.4 9.7 0.00 0.00 0.00 63 1011.7
20260906022703 27 120 4.8 9.7 0.00 0.00 0.00 62 1011.6
20260906022014 27 125 6.4 9.7 0.00 0.00 0.00 61 1011.6
20260906020903 27 124 4.8 9.7 0.00 0.00 0.00 60 1011.5
20260906020214 28 140 4.8 9.7 0.00 0.00 0.00 59 1011.4
20260906015616 28 143 4.8 9.7 0.00 0.00 0.00 59 1011.5
20260906014503 27 138 4.8 6.4 0.00 0.00 0.00 59 1011.1
20260906013815 28 128 4.8 6.4 0.00 0.00 0.00 58 1011.1
20260906012703 29 132 4.8 11.3 0.00 0.00 0.00 55 1011.0
20260906011803 29 135 4.8 8.0 0.00 0.00 0.00 54 1010.8
20260906011112 30 151 6.4 9.7 0.00 0.00 0.00 53 1010.8
20260906010215 30 150 6.4 11.3 0.00 0.00 0.00 51 1010.9
20260906005616 30 134 6.4 11.3 0.00 0.00 0.00 50 1010.8
20260906004713 31 145 8.0 11.3 0.00 0.00 0.00 48 1010.8
20260906003816 32 155 9.7 14.5 0.00 0.00 0.00 46 1010.8
20260906002913 33 166 9.7 16.1 0.00 0.00 0.00 43 1011.0
20260906002016 33 172 11.3 19.3 0.00 0.00 0.00 42 1011.0
20260906000903 34 160 14.5 22.5 0.00 0.00 0.00 41 1011.0
20260906000215 34 147 12.9 19.3 0.00 0.00 0.00 41 1011.0
20260905235617 34 153 14.5 22.5 0.00 0.00 0.00 39 1010.8
20260905234714 34 163 16.1 25.7 0.00 0.00 0.00 39 1010.8
20260905233816 34 160 17.7 25.7 0.00 0.00 0.00 39 1010.9
20260905232914 34 159 19.3 27.4 0.00 0.00 0.00 39 1010.9
20260905232016 34 159 19.3 29.0 0.00 0.00 0.00 38 1010.9
20260905230903 34 150 20.9 33.8 0.00 0.00 0.00 38 1011.1
20260905230003 35 164 19.3 33.8 0.00 0.00 0.00 38 1011.1
20260905225612 35 162 19.3 27.4 0.00 0.00 0.00 38 1011.0
20260905224503 35 168 19.3 32.2 0.00 0.00 0.00 39 1011.0
20260905223603 34 180 17.7 27.4 0.00 0.00 0.00 42 1011.0
20260905222703 33 186 16.1 29.0 0.00 0.00 0.00 44 1011.0
20260905221803 33 190 19.3 32.2 0.00 0.00 0.00 44 1010.9
20260905220903 33 176 25.7 40.2 0.00 0.00 0.00 43 1010.9
20260905220003 34 171 27.4 40.2 0.00 0.00 0.00 40 1010.7
20260905215403 35 163 27.4 43.5 0.00 0.00 0.00 39 1010.7
20260905214715 35 164 24.1 37.0 0.00 0.00 0.00 41 1010.6
20260905213813 34 165 25.7 40.2 0.00 0.00 0.00 40 1010.6
20260905212915 34 166 27.4 41.8 0.00 0.00 0.00 40 1010.7
20260905211803 35 169 27.4 48.3 0.00 0.00 0.00 39 1010.9
20260905211115 36 153 25.7 48.3 0.00 0.00 0.00 40 1011.0
20260905210212 37 160 22.5 35.4 0.00 0.00 0.00 39 1010.8
20260905205614 37 164 22.5 35.4 0.00 0.00 0.00 38 1010.7
20260905204716 37 168 16.1 35.4 0.00 0.00 0.00 39 1010.8
20260905203603 37 166 12.9 24.1 0.00 0.00 0.00 38 1010.9
20260905202916 37 144 14.5 29.0 0.00 0.00 0.00 39 1010.9
20260905202013 37 144 16.1 29.0 0.00 0.00 0.00 39 1011.0